When you browse on this site, cookies collect data to enhance your experience and personalize the content and advertising you see.
Visit our Privacy Policy to learn more. By continuing to use the site, you agree to this use of cookies and data.

Hourly Weather Szekszard

Today, 27 September, Sunday

Time Temperature Precipitation Wind Pressure Humidity
00:00 +9°C° 0 mm 3 mps 743 mmHg 70%
01:00 +9°C° 0 mm 3 mps 744 mmHg 71%
02:00 +8°C° 0 mm 3 mps 744 mmHg 72%
03:00 +8°C° 0 mm 2 mps 745 mmHg 73%
04:00 +8°C° 0 mm 2 mps 745 mmHg 74%
05:00 +8°C° 0 mm 2 mps 746 mmHg 73%
06:00 +9°C° 0 mm 2 mps 746 mmHg 71%
07:00 +9°C° 0 mm 2 mps 747 mmHg 70%
08:00 +12°C° 0 mm 2 mps 747 mmHg 62%
09:00 +13°C° 0 mm 3 mps 748 mmHg 54%
10:00 +16°C° 0 mm 3 mps 749 mmHg 46%
11:00 +17°C° 0 mm 3 mps 749 mmHg 42%
12:00 +18°C° 0 mm 3 mps 749 mmHg 37%
13:00 +19°C° 0 mm 3 mps 749 mmHg 33%
14:00 +19°C° 0 mm 4 mps 748 mmHg 34%
15:00 +19°C° 0 mm 5 mps 748 mmHg 35%
16:00 +19°C° 0 mm 5 mps 748 mmHg 36%
17:00 +17°C° 0 mm 5 mps 748 mmHg 41%
18:00 +15°C° 0 mm 4 mps 748 mmHg 46%
19:00 +14°C° 0 mm 4 mps 748 mmHg 51%
20:00 +14°C° 0 mm 4 mps 748 mmHg 53%
21:00 +14°C° 0 mm 5 mps 748 mmHg 56%
22:00 +15°C° 0 mm 5 mps 748 mmHg 58%
23:00 +15°C° 0 mm 5 mps 748 mmHg 58%

Tomorrow, 28 September, Monday

Time Temperature Precipitation Wind Pressure Humidity
00:00 +15°C° 0 mm 6 mps 747 mmHg 57%
01:00 +15°C° 0 mm 6 mps 746 mmHg 57%
02:00 +15°C° 0.1 mm 7 mps 746 mmHg 58%
03:00 +15°C° 0.1 mm 8 mps 746 mmHg 59%
04:00 +15°C° 0.1 mm 9 mps 746 mmHg 60%
05:00 +15°C° 0.4 mm 7 mps 746 mmHg 62%
06:00 +15°C° 0.4 mm 5 mps 746 mmHg 64%
07:00 +16°C° 0.4 mm 3 mps 746 mmHg 66%
08:00 +18°C° 0.1 mm 4 mps 747 mmHg 61%
09:00 +19°C° 0.1 mm 5 mps 747 mmHg 56%
10:00 +21°C° 0.1 mm 5 mps 747 mmHg 52%
11:00 +22°C° 0.2 mm 5 mps 748 mmHg 48%
12:00 +23°C° 0.2 mm 6 mps 748 mmHg 44%
13:00 +24°C° 0.2 mm 6 mps 748 mmHg 40%
14:00 +22°C° 0.2 mm 5 mps 748 mmHg 48%
15:00 +20°C° 0.2 mm 5 mps 748 mmHg 56%
16:00 +17°C° 0.2 mm 5 mps 748 mmHg 65%
17:00 +17°C° 0 mm 4 mps 748 mmHg 68%
18:00 +16°C° 0 mm 3 mps 749 mmHg 71%
19:00 +16°C° 0 mm 2 mps 749 mmHg 74%
20:00 +15°C° 0 mm 1 mps 750 mmHg 76%
21:00 +15°C° 0 mm 1 mps 750 mmHg 78%
22:00 +14°C° 0 mm 1 mps 750 mmHg 79%
23:00 +14°C° 0 mm 1 mps 750 mmHg 80%

Day after tomorrow, 29 September, Tuesday

Time Temperature Precipitation Wind Pressure Humidity
00:00 +14°C° 0 mm 1 mps 751 mmHg 81%
01:00 +13°C° 0 mm 1 mps 751 mmHg 81%
02:00 +13°C° 0.1 mm 2 mps 751 mmHg 82%
03:00 +12°C° 0.1 mm 3 mps 751 mmHg 84%
04:00 +12°C° 0.1 mm 3 mps 751 mmHg 85%
05:00 +12°C° 0.3 mm 3 mps 752 mmHg 85%
06:00 +12°C° 0.3 mm 3 mps 752 mmHg 86%
07:00 +12°C° 0.3 mm 3 mps 752 mmHg 87%
08:00 +13°C° 0.3 mm 3 mps 752 mmHg 84%
09:00 +13°C° 0.3 mm 3 mps 752 mmHg 81%
10:00 +14°C° 0.3 mm 4 mps 753 mmHg 78%
11:00 +15°C° 0.2 mm 4 mps 753 mmHg 73%
12:00 +17°C° 0.2 mm 4 mps 753 mmHg 68%
13:00 +18°C° 0.2 mm 4 mps 753 mmHg 63%
14:00 +17°C° 0.1 mm 4 mps 753 mmHg 63%
15:00 +17°C° 0.1 mm 4 mps 753 mmHg 63%
16:00 +17°C° 0.1 mm 4 mps 752 mmHg 63%
17:00 +15°C° 0 mm 4 mps 753 mmHg 68%
18:00 +14°C° 0 mm 3 mps 753 mmHg 73%
19:00 +13°C° 0 mm 3 mps 753 mmHg 78%
20:00 +13°C° 0 mm 3 mps 753 mmHg 79%
21:00 +12°C° 0 mm 3 mps 753 mmHg 80%
22:00 +12°C° 0 mm 3 mps 753 mmHg 81%
23:00 +12°C° 0 mm 4 mps 753 mmHg 81%

30 September, Wednesday

Time Temperature Precipitation Wind Pressure Humidity
00:00 +12°C° 0 mm 4 mps 753 mmHg 81%
01:00 +12°C° 0 mm 5 mps 753 mmHg 80%
02:00 +10°C° 0 mm 5 mps 753 mmHg 81%
03:00 +10°C° 0 mm 5 mps 753 mmHg 82%
04:00 +10°C° 0 mm 5 mps 753 mmHg 84%
05:00 +10°C° 0 mm 5 mps 753 mmHg 82%
06:00 +12°C° 0 mm 5 mps 753 mmHg 80%
07:00 +12°C° 0 mm 5 mps 753 mmHg 79%
08:00 +14°C° 0 mm 5 mps 752 mmHg 70%
09:00 +16°C° 0 mm 6 mps 752 mmHg 61%
10:00 +19°C° 0 mm 6 mps 752 mmHg 53%
11:00 +20°C° 0 mm 7 mps 751 mmHg 50%
12:00 +20°C° 0 mm 7 mps 751 mmHg 48%
13:00 +21°C° 0 mm 7 mps 750 mmHg 45%
14:00 +20°C° 0 mm 6 mps 750 mmHg 46%
15:00 +20°C° 0 mm 6 mps 750 mmHg 48%
16:00 +20°C° 0 mm 6 mps 749 mmHg 49%
17:00 +17°C° 0 mm 5 mps 749 mmHg 56%
18:00 +17°C° 0 mm 4 mps 749 mmHg 62%
19:00 +14°C° 0 mm 3 mps 749 mmHg 69%
20:00 +14°C° 0 mm 4 mps 749 mmHg 72%
21:00 +14°C° 0 mm 4 mps 749 mmHg 75%
22:00 +13°C° 0 mm 4 mps 749 mmHg 78%
23:00 +13°C° 0 mm 4 mps 749 mmHg 81%

1 October, Thursday

Time Temperature Precipitation Wind Pressure Humidity
00:00 +13°C° 0 mm 5 mps 749 mmHg 83%
01:00 +13°C° 0 mm 5 mps 748 mmHg 86%
02:00 +13°C° 0 mm 5 mps 748 mmHg 85%
03:00 +13°C° 0 mm 5 mps 748 mmHg 84%
04:00 +13°C° 0 mm 5 mps 748 mmHg 82%
05:00 +13°C° 0 mm 5 mps 748 mmHg 81%
06:00 +14°C° 0 mm 5 mps 748 mmHg 79%
07:00 +14°C° 0 mm 5 mps 748 mmHg 78%
08:00 +15°C° 0.1 mm 5 mps 747 mmHg 73%
09:00 +16°C° 0.1 mm 6 mps 747 mmHg 69%
10:00 +17°C° 0.1 mm 6 mps 747 mmHg 65%
11:00 +19°C° 0 mm 5 mps 747 mmHg 61%
12:00 +19°C° 0 mm 5 mps 747 mmHg 57%
13:00 +20°C° 0 mm 5 mps 746 mmHg 53%
14:00 +20°C° 0 mm 4 mps 746 mmHg 52%
15:00 +21°C° 0 mm 3 mps 746 mmHg 51%
16:00 +21°C° 0 mm 3 mps 746 mmHg 50%
17:00 +19°C° 0 mm 2 mps 746 mmHg 58%
18:00 +17°C° 0 mm 2 mps 746 mmHg 66%
19:00 +15°C° 0 mm 1 mps 746 mmHg 75%
20:00 +15°C° 0 mm 1 mps 746 mmHg 76%
21:00 +14°C° 0 mm 1 mps 746 mmHg 77%
22:00 +14°C° 0 mm 2 mps 746 mmHg 78%
23:00 +14°C° 0 mm 2 mps 746 mmHg 77%

2 October, Friday

Time Temperature Precipitation Wind Pressure Humidity
00:00 +14°C° 0 mm 2 mps 746 mmHg 76%
01:00 +14°C° 0 mm 2 mps 746 mmHg 76%
02:00 +14°C° 0 mm 2 mps 746 mmHg 77%
03:00 +14°C° 0 mm 2 mps 746 mmHg 79%
04:00 +14°C° 0 mm 2 mps 746 mmHg 80%
05:00 +14°C° 0 mm 2 mps 746 mmHg 78%
06:00 +15°C° 0 mm 2 mps 746 mmHg 76%
07:00 +15°C° 0 mm 2 mps 746 mmHg 73%
08:00 +16°C° 0.3 mm 3 mps 746 mmHg 72%
09:00 +17°C° 0.3 mm 3 mps 746 mmHg 71%
10:00 +18°C° 0.3 mm 3 mps 746 mmHg 69%
11:00 +18°C° 0.6 mm 4 mps 746 mmHg 73%
12:00 +18°C° 0.6 mm 4 mps 746 mmHg 76%
13:00 +17°C° 0.6 mm 5 mps 746 mmHg 79%
14:00 +17°C° 0 mm 5 mps 746 mmHg 78%
15:00 +17°C° 0 mm 6 mps 746 mmHg 76%
16:00 +19°C° 0 mm 6 mps 746 mmHg 75%
17:00 +17°C° 0 mm 6 mps 746 mmHg 79%
18:00 +16°C° 0 mm 5 mps 746 mmHg 83%
19:00 +16°C° 0 mm 5 mps 746 mmHg 87%
20:00 +15°C° 0 mm 5 mps 746 mmHg 87%
21:00 +15°C° 0 mm 5 mps 746 mmHg 88%
22:00 +14°C° 0 mm 4 mps 746 mmHg 89%
23:00 +14°C° 0 mm 4 mps 746 mmHg 87%
Show more